TAP247 LPPT-KLAX

Flight info

Callsign TAP247
Flight time N/A
Altitude 39000
Route ELNUB DETOX/M082F390 44N020W 4630N03000W 4930N04000W 4930N05000W IBERG/N0467F390 SATIP MIILS ROSVO SSM DLH ABR DDY BLD HAKMN
Aircraft A339/H-SADE1E2E3GHIJ3J5M1P2RWXY/LB2D1

Departure

Time 2026-05-08 08:16
Airport Lisbon Humberto Delgado Airport (LPPT)

Arrival

Time N/A
Airport Los Angeles International Airport (KLAX)
Time Latitude Longitude Altitude Speed Heading
2026-05-08 07:49 38.77428 -9.13150 343 ft 0 kts 78°
2026-05-08 07:53 38.77424 -9.13175 350 ft 4 kts 78°
2026-05-08 07:53 38.77419 -9.13208 347 ft 4 kts 78°
2026-05-08 07:54 38.77413 -9.13242 343 ft 3 kts 78°
2026-05-08 07:54 38.77412 -9.13266 344 ft 4 kts 39°
2026-05-08 07:54 38.77401 -9.13276 355 ft 4 kts 347°
2026-05-08 07:54 38.77375 -9.13268 344 ft 4 kts 346°
2026-05-08 07:55 38.77361 -9.13263 355 ft 1 kts 350°
2026-05-08 07:55 38.77359 -9.13263 344 ft 0 kts 350°
2026-05-08 08:08 38.77439 -9.13281 351 ft 16 kts 349°
2026-05-08 08:08 38.77545 -9.13306 347 ft 15 kts 349°
2026-05-08 08:09 38.77590 -9.13314 344 ft 0 kts 353°
2026-05-08 08:09 38.77625 -9.13320 344 ft 13 kts 353°
2026-05-08 08:09 38.77730 -9.13338 349 ft 15 kts 350°
2026-05-08 08:10 38.77812 -9.13359 352 ft 10 kts 348°
2026-05-08 08:10 38.77884 -9.13380 355 ft 13 kts 347°
2026-05-08 08:10 38.77982 -9.13408 361 ft 15 kts 347°
2026-05-08 08:10 38.78089 -9.13437 366 ft 15 kts 349°
2026-05-08 08:11 38.78158 -9.13454 369 ft 5 kts 349°
2026-05-08 08:11 38.78189 -9.13461 370 ft 4 kts 349°
2026-05-08 08:11 38.78240 -9.13474 372 ft 15 kts 349°
2026-05-08 08:11 38.78406 -9.13514 371 ft 20 kts 348°
2026-05-08 08:12 38.78521 -9.13546 375 ft 16 kts 348°
2026-05-08 08:12 38.78620 -9.13565 377 ft 14 kts
2026-05-08 08:12 38.78722 -9.13527 372 ft 18 kts 22°
2026-05-08 08:12 38.78855 -9.13456 365 ft 24 kts 23°
2026-05-08 08:13 38.79005 -9.13373 361 ft 25 kts 23°
2026-05-08 08:13 38.79165 -9.13286 359 ft 24 kts 23°
2026-05-08 08:13 38.79317 -9.13203 361 ft 23 kts 23°
2026-05-08 08:13 38.79455 -9.13127 360 ft 20 kts 22°
2026-05-08 08:14 38.79571 -9.13070 371 ft 16 kts 21°
2026-05-08 08:14 38.79673 -9.13021 367 ft 15 kts 20°
2026-05-08 08:14 38.79763 -9.12950 364 ft 16 kts 57°
2026-05-08 08:14 38.79741 -9.12799 358 ft 17 kts 120°
2026-05-08 08:15 38.79651 -9.12779 361 ft 13 kts 198°
2026-05-08 08:15 38.79411 -9.12908 357 ft 76 kts 203°
2026-05-08 08:15 38.78688 -9.13295 368 ft 147 kts 202°
2026-05-08 08:15 38.77589 -9.13884 576 ft 185 kts 203°
2026-05-08 08:16 38.76376 -9.14519 1268 ft 193 kts 200°
2026-05-08 08:16 38.75078 -9.15196 1817 ft 208 kts 201°
2026-05-08 08:16 38.73741 -9.15884 2663 ft 204 kts 201°
2026-05-08 08:16 38.72397 -9.16592 3205 ft 215 kts 202°
2026-05-08 08:17 38.70984 -9.17384 3682 ft 229 kts 203°
2026-05-08 08:17 38.69537 -9.18357 4098 ft 242 kts 212°
2026-05-08 08:17 38.68226 -9.19709 4785 ft 240 kts 224°
2026-05-08 08:17 38.67153 -9.21366 5339 ft 248 kts 236°
2026-05-08 08:18 38.66382 -9.23337 5966 ft 250 kts 246°
2026-05-08 08:18 38.65993 -9.25574 6196 ft 268 kts 267°
2026-05-08 08:18 38.66240 -9.27970 6720 ft 275 kts 283°
2026-05-08 08:18 38.66842 -9.30302 7324 ft 278 kts 289°
2026-05-08 08:19 38.67592 -9.32598 7910 ft 281 kts 292°
2026-05-08 08:19 38.68329 -9.34930 8490 ft 284 kts 285°
2026-05-08 08:19 38.68869 -9.37335 9071 ft 286 kts 284°
2026-05-08 08:19 38.69411 -9.39832 9674 ft 289 kts 283°
2026-05-08 08:20 38.69936 -9.42285 10229 ft 293 kts 283°
2026-05-08 08:20 38.70492 -9.44880 10412 ft 311 kts 283°
2026-05-08 08:20 38.71078 -9.47625 10586 ft 328 kts 283°
2026-05-08 08:20 38.71686 -9.50497 10912 ft 337 kts 283°
2026-05-08 08:21 38.72254 -9.53157 11450 ft 338 kts 283°
2026-05-08 08:21 38.72877 -9.56074 11978 ft 341 kts 283°
2026-05-08 08:21 38.73503 -9.59009 12536 ft 343 kts 283°
2026-05-08 08:21 38.74129 -9.61963 13062 ft 345 kts 283°
2026-05-08 08:22 38.74756 -9.64935 13608 ft 346 kts 283°
2026-05-08 08:22 38.75385 -9.67923 14113 ft 349 kts 283°
2026-05-08 08:22 38.76076 -9.70915 14597 ft 352 kts 289°
2026-05-08 08:22 38.77150 -9.73746 15107 ft 356 kts 298°
2026-05-08 08:23 38.78546 -9.76382 15590 ft 360 kts 306°
2026-05-08 08:23 38.80196 -9.78812 16070 ft 363 kts 312°
2026-05-08 08:23 38.82070 -9.81006 16523 ft 367 kts 319°
2026-05-08 08:23 38.84149 -9.82926 16963 ft 371 kts 326°
2026-05-08 08:24 38.86354 -9.84667 17428 ft 373 kts 326°
2026-05-08 08:24 38.88562 -9.86439 17876 ft 375 kts 326°
2026-05-08 08:24 38.90778 -9.88237 18311 ft 378 kts 325°
2026-05-08 08:24 38.93006 -9.90054 18732 ft 381 kts 325°
2026-05-08 08:25 38.95248 -9.91885 19166 ft 383 kts 325°
2026-05-08 08:25 38.97507 -9.93730 19580 ft 386 kts 325°
2026-05-08 08:25 38.99781 -9.95590 19997 ft 389 kts 325°
2026-05-08 08:25 39.02067 -9.97466 20400 ft 391 kts 324°
2026-05-08 08:26 39.04097 -9.99770 20754 ft 390 kts 308°
2026-05-08 08:26 39.05528 -10.02712 21184 ft 388 kts 291°
2026-05-08 08:26 39.06254 -10.06030 21620 ft 386 kts 277°
2026-05-08 08:26 39.06490 -10.09483 22011 ft 388 kts 271°
2026-05-08 08:27 39.06551 -10.12961 22416 ft 390 kts 268°
2026-05-08 08:27 39.06505 -10.16464 22794 ft 393 kts 268°
2026-05-08 08:27 39.06560 -10.19986 23208 ft 395 kts 271°
2026-05-08 08:27 39.06684 -10.23527 23594 ft 398 kts 271°
2026-05-08 08:28 39.06825 -10.27091 24013 ft 400 kts 271°
2026-05-08 08:28 39.06966 -10.30677 24386 ft 402 kts 271°
2026-05-08 08:28 39.07103 -10.34281 24760 ft 405 kts 271°
2026-05-08 08:28 39.07232 -10.37861 25112 ft 407 kts 271°
2026-05-08 08:29 39.07362 -10.41558 25479 ft 409 kts 271°
2026-05-08 08:29 39.07490 -10.45226 25835 ft 412 kts 271°
2026-05-08 08:29 39.07619 -10.48917 26185 ft 414 kts 271°
2026-05-08 08:29 39.07747 -10.52627 26545 ft 416 kts 271°
2026-05-08 08:30 39.07871 -10.56305 26877 ft 418 kts 271°
2026-05-08 08:30 39.08000 -10.60052 27196 ft 420 kts 271°
2026-05-08 08:30 39.08900 -10.67511 27808 ft 428 kts 287°
2026-05-08 08:31 39.10083 -10.71040 28113 ft 432 kts 296°
2026-05-08 08:31 39.11650 -10.74361 28400 ft 435 kts 300°
2026-05-08 08:31 39.13245 -10.77685 28671 ft 438 kts 300°
2026-05-08 08:31 39.14834 -10.81034 28980 ft 439 kts 299°
2026-05-08 08:32 39.16427 -10.84407 29261 ft 441 kts 299°
2026-05-08 08:32 39.18025 -10.87793 29542 ft 443 kts 299°
2026-05-08 08:32 39.19629 -10.91196 29825 ft 445 kts 299°
2026-05-08 08:32 39.21237 -10.94613 30099 ft 447 kts 299°
2026-05-08 08:33 39.22855 -10.98049 30395 ft 449 kts 299°
2026-05-08 08:33 39.24480 -11.01501 30661 ft 451 kts 299°
2026-05-08 08:33 39.26106 -11.04974 30934 ft 453 kts 299°
2026-05-08 08:33 39.27738 -11.08462 31189 ft 455 kts 299°
2026-05-08 08:34 39.29376 -11.11970 31446 ft 457 kts 299°
2026-05-08 08:34 39.31021 -11.15490 31713 ft 459 kts 299°
2026-05-08 08:34 39.32676 -11.19029 31972 ft 461 kts 299°
2026-05-08 08:34 39.34323 -11.22559 32225 ft 463 kts 299°
2026-05-08 08:35 39.35993 -11.26141 32433 ft 465 kts 299°
2026-05-08 08:35 39.37668 -11.29739 32652 ft 466 kts 299°
2026-05-08 08:35 39.39318 -11.33283 32820 ft 468 kts 299°
2026-05-08 08:35 39.40996 -11.36893 32965 ft 469 kts 299°
2026-05-08 08:36 39.42676 -11.40514 33128 ft 470 kts 299°
2026-05-08 08:36 39.44358 -11.44145 33274 ft 471 kts 299°
2026-05-08 08:36 39.46041 -11.47785 33398 ft 472 kts 299°
2026-05-08 08:36 39.47726 -11.51434 33564 ft 472 kts 299°
2026-05-08 08:37 39.49408 -11.55078 33722 ft 472 kts 299°
2026-05-08 08:37 39.51091 -11.58727 33879 ft 472 kts 299°
2026-05-08 08:37 39.52772 -11.62371 34036 ft 471 kts 299°
2026-05-08 08:37 39.54452 -11.66019 34195 ft 471 kts 299°
2026-05-08 08:38 39.56128 -11.69666 34337 ft 471 kts 299°
2026-05-08 08:38 39.57803 -11.73317 34452 ft 472 kts 299°
2026-05-08 08:38 39.59478 -11.76978 34598 ft 472 kts 299°
2026-05-08 08:38 39.61150 -11.80634 34697 ft 472 kts 298°
2026-05-08 08:39 39.62825 -11.84299 34835 ft 472 kts 298°
2026-05-08 08:39 39.64502 -11.87956 34976 ft 472 kts 298°
2026-05-08 08:39 39.67848 -11.95291 35209 ft 472 kts 298°
2026-05-08 08:40 39.69517 -11.98961 35338 ft 472 kts 298°
2026-05-08 08:40 39.71190 -12.02636 35472 ft 472 kts 298°
2026-05-08 08:40 39.72858 -12.06309 35604 ft 472 kts 298°
2026-05-08 08:40 39.74521 -12.09988 35739 ft 472 kts 298°
2026-05-08 08:41 39.76188 -12.13671 35855 ft 473 kts 298°
2026-05-08 08:41 39.77856 -12.17350 35995 ft 473 kts 298°
2026-05-08 08:41 39.79527 -12.21038 36106 ft 473 kts 298°
2026-05-08 08:41 39.81192 -12.24723 36225 ft 473 kts 298°
2026-05-08 08:42 39.82856 -12.28413 36335 ft 473 kts 298°
2026-05-08 08:42 39.84521 -12.32112 36436 ft 474 kts 298°
2026-05-08 08:42 39.87820 -12.39453 36797 ft 470 kts 298°
2026-05-08 08:43 39.89455 -12.43101 37136 ft 464 kts 298°
2026-05-08 08:43 39.91086 -12.46738 37222 ft 465 kts 298°
2026-05-08 08:43 39.94350 -12.54023 37403 ft 466 kts 298°
2026-05-08 08:44 39.97613 -12.61322 37591 ft 466 kts 298°
2026-05-08 08:44 40.00870 -12.68634 37753 ft 467 kts 298°
2026-05-08 08:45 40.04132 -12.75983 37866 ft 469 kts 298°
2026-05-08 08:45 40.07402 -12.83357 38034 ft 470 kts 298°
2026-05-08 08:46 40.10668 -12.90750 38201 ft 470 kts 298°
2026-05-08 08:46 40.13937 -12.98146 38366 ft 471 kts 298°
2026-05-08 08:47 40.16654 -13.04314 38488 ft 471 kts 298°
2026-05-08 08:47 40.19913 -13.11742 38635 ft 471 kts 298°
2026-05-08 08:48 40.23174 -13.19186 38800 ft 472 kts 298°
2026-05-08 08:48 40.26433 -13.26640 38904 ft 471 kts 298°
2026-05-08 08:49 40.29686 -13.34095 38905 ft 471 kts 298°
2026-05-08 08:49 40.32931 -13.41552 38909 ft 471 kts 298°
2026-05-08 08:50 40.36173 -13.49016 38906 ft 471 kts 298°
2026-05-08 08:50 40.39412 -13.56490 38903 ft 471 kts 298°
2026-05-08 08:51 40.42641 -13.63977 38909 ft 472 kts 298°
2026-05-08 08:51 40.45873 -13.71470 38911 ft 472 kts 298°
2026-05-08 08:52 40.49099 -13.78972 38912 ft 472 kts 297°
2026-05-08 08:52 40.52314 -13.86485 38908 ft 472 kts 297°
2026-05-08 08:53 40.55524 -13.93999 38908 ft 472 kts 297°
2026-05-08 08:53 40.58734 -14.01526 38910 ft 472 kts 297°
2026-05-08 08:54 40.61939 -14.09059 38908 ft 472 kts 297°
2026-05-08 08:54 40.65134 -14.16598 38906 ft 471 kts 297°
2026-05-08 08:55 40.68331 -14.24140 38909 ft 472 kts 297°
2026-05-08 08:55 40.71501 -14.31643 38898 ft 472 kts 297°
2026-05-08 08:56 40.74685 -14.39209 38896 ft 472 kts 297°
2026-05-08 08:56 40.77867 -14.46774 38898 ft 472 kts 297°
2026-05-08 08:57 40.81040 -14.54353 38899 ft 472 kts 297°
2026-05-08 08:57 40.84214 -14.61941 38894 ft 472 kts 297°
2026-05-08 08:58 40.87379 -14.69541 38897 ft 472 kts 297°
2026-05-08 08:58 40.90546 -14.77149 38897 ft 472 kts 297°
2026-05-08 08:59 40.93704 -14.84759 38897 ft 472 kts 297°
2026-05-08 08:59 40.96864 -14.92376 38899 ft 472 kts 297°
2026-05-08 09:00 41.00157 -14.99896 38896 ft 473 kts 304°
2026-05-08 09:00 41.04330 -15.06642 38892 ft 474 kts 309°
2026-05-08 09:01 41.08626 -15.13261 38895 ft 474 kts 309°
2026-05-08 09:01 41.12921 -15.19894 38893 ft 474 kts 309°
2026-05-08 09:02 41.17217 -15.26532 38892 ft 474 kts 309°
2026-05-08 09:02 41.21515 -15.33182 38895 ft 475 kts 309°
2026-05-08 09:03 41.25806 -15.39852 38906 ft 475 kts 309°
2026-05-08 09:03 41.30065 -15.46481 38909 ft 475 kts 309°
2026-05-08 09:04 41.34380 -15.53213 38912 ft 475 kts 309°
2026-05-08 09:04 41.38634 -15.59864 38916 ft 475 kts 309°
2026-05-08 09:05 41.42917 -15.66576 38912 ft 475 kts 309°
2026-05-08 09:05 41.47196 -15.73291 38913 ft 475 kts 309°
2026-05-08 09:06 41.51464 -15.80017 38909 ft 475 kts 309°
2026-05-08 09:06 41.55728 -15.86748 38906 ft 474 kts 309°
2026-05-08 09:07 41.59982 -15.93478 38904 ft 474 kts 309°
2026-05-08 09:07 41.64236 -16.00216 38905 ft 474 kts 309°
2026-05-08 09:08 41.68486 -16.06967 38907 ft 474 kts 309°
2026-05-08 09:08 41.72739 -16.13717 38905 ft 475 kts 309°
2026-05-08 09:09 41.76955 -16.20441 38907 ft 475 kts 309°
2026-05-08 09:09 41.81194 -16.27221 38905 ft 475 kts 309°
2026-05-08 09:10 41.85432 -16.34020 38899 ft 475 kts 309°
2026-05-08 09:10 41.89673 -16.40824 38895 ft 475 kts 309°
2026-05-08 09:11 41.93900 -16.47635 38896 ft 476 kts 309°
2026-05-08 09:11 41.98131 -16.54463 38894 ft 475 kts 309°
2026-05-08 09:12 42.02353 -16.61297 38894 ft 475 kts 309°
2026-05-08 09:12 42.06577 -16.68147 38900 ft 476 kts 308°
2026-05-08 09:13 42.10798 -16.75009 38896 ft 476 kts 309°
2026-05-08 09:13 42.15017 -16.81877 38903 ft 476 kts 309°
2026-05-08 09:14 42.19231 -16.88754 38903 ft 476 kts 309°
2026-05-08 09:14 42.23436 -16.95641 38897 ft 475 kts 309°
2026-05-08 09:15 42.27636 -17.02530 38899 ft 475 kts 309°
2026-05-08 09:15 42.31834 -17.09416 38901 ft 475 kts 309°
2026-05-08 09:16 42.36028 -17.16327 38903 ft 475 kts 309°
2026-05-08 09:16 42.40216 -17.23247 38901 ft 475 kts 309°
2026-05-08 09:17 42.44372 -17.30125 38902 ft 475 kts 309°
2026-05-08 09:17 42.48547 -17.37043 38907 ft 474 kts 309°
2026-05-08 09:18 42.52713 -17.43975 38906 ft 474 kts 309°
2026-05-08 09:18 42.56876 -17.50909 38906 ft 474 kts 308°
2026-05-08 09:19 42.61028 -17.57855 38904 ft 474 kts 308°
2026-05-08 09:19 42.65176 -17.64802 38905 ft 473 kts 308°
2026-05-08 09:20 42.69320 -17.71756 38907 ft 473 kts 308°
2026-05-08 09:20 42.73458 -17.78724 38905 ft 473 kts 308°
2026-05-08 09:21 42.77590 -17.85697 38909 ft 473 kts 308°
2026-05-08 09:23 42.92040 -18.10183 38906 ft 474 kts 308°
2026-05-08 09:23 42.96127 -18.17147 38907 ft 473 kts 308°
2026-05-08 09:24 43.00234 -18.24167 38914 ft 473 kts 308°
2026-05-08 09:24 43.04336 -18.31192 38928 ft 472 kts 308°
2026-05-08 09:25 43.08432 -18.38221 38929 ft 472 kts 308°
2026-05-08 09:25 43.12522 -18.45259 38930 ft 472 kts 308°
2026-05-08 09:26 43.16606 -18.52302 38919 ft 472 kts 308°
2026-05-08 09:26 43.20679 -18.59354 38916 ft 472 kts 308°
2026-05-08 09:27 43.24753 -18.66416 38907 ft 472 kts 308°
2026-05-08 09:27 43.28825 -18.73479 38911 ft 472 kts 308°
2026-05-08 09:28 43.32861 -18.80510 38914 ft 472 kts 308°
2026-05-08 09:28 43.36922 -18.87601 38931 ft 472 kts 308°
2026-05-08 09:29 43.40977 -18.94703 38908 ft 472 kts 308°
2026-05-08 09:29 43.45025 -19.01805 38904 ft 472 kts 308°
2026-05-08 09:30 43.49036 -19.08926 38896 ft 470 kts 308°
2026-05-08 09:30 43.53080 -19.16007 38899 ft 470 kts 308°
2026-05-08 09:31 43.57119 -19.23110 38899 ft 471 kts 308°
2026-05-08 09:31 43.61150 -19.30237 38903 ft 471 kts 308°
2026-05-08 09:32 43.65171 -19.37379 38908 ft 471 kts 308°
2026-05-08 09:32 43.69193 -19.44533 38908 ft 471 kts 308°
2026-05-08 09:33 43.73204 -19.51700 38916 ft 471 kts 308°
2026-05-08 09:33 43.77202 -19.58868 38911 ft 471 kts 308°
2026-05-08 09:34 43.81209 -19.66048 38910 ft 471 kts 308°
2026-05-08 09:34 43.85211 -19.73239 38909 ft 471 kts 307°
2026-05-08 09:35 43.89205 -19.80429 38944 ft 471 kts 307°
2026-05-08 09:35 43.93201 -19.87627 38950 ft 471 kts 307°
2026-05-08 09:36 43.97163 -19.94866 38950 ft 471 kts 305°
2026-05-08 09:36 44.00580 -20.02622 38952 ft 471 kts 298°
2026-05-08 09:37 44.03297 -20.10894 38960 ft 471 kts 292°
2026-05-08 09:37 44.05845 -20.19290 38962 ft 471 kts 293°
2026-05-08 09:38 44.07977 -20.26260 38963 ft 471 kts 293°
2026-05-08 09:38 44.10529 -20.34659 38976 ft 471 kts 293°
2026-05-08 09:39 44.13074 -20.43065 38976 ft 471 kts 293°
2026-05-08 09:39 44.15610 -20.51478 38977 ft 471 kts 293°
2026-05-08 09:40 44.18136 -20.59898 38972 ft 471 kts 292°
2026-05-08 09:40 44.20650 -20.68322 38974 ft 471 kts 292°
2026-05-08 09:41 44.23158 -20.76747 38974 ft 470 kts 292°
2026-05-08 09:41 44.25650 -20.85167 38973 ft 470 kts 292°
2026-05-08 09:42 44.28148 -20.93587 38970 ft 469 kts 292°
2026-05-08 09:42 44.30627 -21.02005 38970 ft 469 kts 292°
2026-05-08 09:43 44.33099 -21.10429 38971 ft 469 kts 292°
2026-05-08 09:43 44.35565 -21.18854 38971 ft 468 kts 292°
2026-05-08 09:44 44.38004 -21.27227 38973 ft 468 kts 292°
2026-05-08 09:44 44.40460 -21.35657 38975 ft 468 kts 292°
2026-05-08 09:45 44.42907 -21.44088 38973 ft 468 kts 292°
2026-05-08 09:45 44.45340 -21.52523 38970 ft 467 kts 292°
2026-05-08 09:46 44.47768 -21.60961 38972 ft 467 kts 292°
2026-05-08 09:46 44.50188 -21.69394 38970 ft 467 kts 292°
2026-05-08 09:47 44.52604 -21.77832 38997 ft 466 kts 292°
2026-05-08 09:47 44.55007 -21.86274 38992 ft 466 kts 292°
2026-05-08 09:48 44.57406 -21.94726 38998 ft 466 kts 292°
2026-05-08 09:48 44.59799 -22.03180 38995 ft 467 kts 292°
2026-05-08 09:49 44.62187 -22.11647 38998 ft 466 kts 292°
2026-05-08 09:49 44.64567 -22.20114 39002 ft 466 kts 292°
2026-05-08 09:50 44.66939 -22.28584 38993 ft 466 kts 292°
2026-05-08 09:50 44.69303 -22.37060 38992 ft 466 kts 292°
2026-05-08 09:51 44.71663 -22.45542 38996 ft 466 kts 292°
2026-05-08 09:51 44.74011 -22.54033 38993 ft 466 kts 292°
2026-05-08 09:52 44.76359 -22.62521 39004 ft 466 kts 292°
2026-05-08 09:52 44.78704 -22.71024 38994 ft 466 kts 292°
2026-05-08 09:53 44.81037 -22.79537 38995 ft 466 kts 292°
2026-05-08 09:53 44.83363 -22.88055 39001 ft 466 kts 292°
2026-05-08 09:54 44.85684 -22.96577 38995 ft 465 kts 291°
2026-05-08 09:54 44.87995 -23.05103 38993 ft 466 kts 291°
2026-05-08 09:55 44.90302 -23.13629 39000 ft 466 kts 291°
2026-05-08 09:55 44.92591 -23.22113 38998 ft 466 kts 291°
2026-05-08 09:56 44.94888 -23.30659 38995 ft 466 kts 291°
2026-05-08 09:56 44.97175 -23.39213 38993 ft 466 kts 291°
2026-05-08 09:57 45.00589 -23.52050 38999 ft 465 kts 291°
2026-05-08 09:57 45.02864 -23.60617 38993 ft 466 kts 291°
2026-05-08 09:58 45.05131 -23.69193 38995 ft 466 kts 291°
2026-05-08 09:58 45.07389 -23.77774 38995 ft 466 kts 291°
2026-05-08 09:59 45.09647 -23.86371 39003 ft 466 kts 291°
2026-05-08 09:59 45.11896 -23.94976 39006 ft 466 kts 291°
2026-05-08 10:00 45.14136 -24.03587 39010 ft 466 kts 291°
2026-05-08 10:00 45.16369 -24.12199 38999 ft 465 kts 291°
2026-05-08 10:01 45.18595 -24.20810 39001 ft 465 kts 291°
2026-05-08 10:01 45.20813 -24.29424 39000 ft 465 kts 291°
2026-05-08 10:02 45.23026 -24.38040 38997 ft 465 kts 291°
2026-05-08 10:02 45.25230 -24.46651 39000 ft 464 kts 291°
2026-05-08 10:03 45.27426 -24.55267 38995 ft 464 kts 291°
2026-05-08 10:03 45.29593 -24.63841 39004 ft 465 kts 291°
2026-05-08 10:04 45.31774 -24.72475 39002 ft 464 kts 291°
2026-05-08 10:04 45.33948 -24.81102 38997 ft 464 kts 291°
2026-05-08 10:05 45.36115 -24.89734 39007 ft 463 kts 291°
2026-05-08 10:05 45.38274 -24.98368 38999 ft 463 kts 290°
2026-05-08 10:06 45.40419 -25.07012 39003 ft 463 kts 291°
2026-05-08 10:06 45.42569 -25.15653 39004 ft 463 kts 291°
2026-05-08 10:07 45.44704 -25.24298 38999 ft 463 kts 291°
2026-05-08 10:07 45.46833 -25.32951 39004 ft 463 kts 291°
2026-05-08 10:08 45.48955 -25.41605 39002 ft 462 kts 291°
2026-05-08 10:08 45.51069 -25.50256 38995 ft 462 kts 291°
2026-05-08 10:09 45.53171 -25.58906 39001 ft 462 kts 290°
2026-05-08 10:09 45.55270 -25.67565 39012 ft 462 kts 291°
2026-05-08 10:10 45.57362 -25.76220 39022 ft 462 kts 291°
2026-05-08 10:10 45.59441 -25.84836 39022 ft 462 kts 290°
2026-05-08 10:11 45.61516 -25.93513 39008 ft 462 kts 290°
2026-05-08 10:11 45.63584 -26.02205 39019 ft 462 kts 290°
2026-05-08 10:12 45.65651 -26.10898 39011 ft 462 kts 290°
2026-05-08 10:12 45.67716 -26.19591 39009 ft 462 kts 290°
2026-05-08 10:13 45.69769 -26.28291 39004 ft 462 kts 290°
2026-05-08 10:13 45.71809 -26.36994 39013 ft 461 kts 290°
2026-05-08 10:14 45.73844 -26.45692 39027 ft 461 kts 290°
2026-05-08 10:14 45.75872 -26.54397 39034 ft 460 kts 290°
2026-05-08 10:15 45.77890 -26.63103 39037 ft 460 kts 290°
2026-05-08 10:15 45.79904 -26.71802 39033 ft 460 kts 290°
2026-05-08 10:16 45.81908 -26.80491 39009 ft 459 kts 290°
2026-05-08 10:16 45.83901 -26.89171 39016 ft 458 kts 290°
2026-05-08 10:17 45.85886 -26.97843 39009 ft 458 kts 290°